| time (UTC) | temp F | wind direction | speed MPH | gust MPH | rain 1hr in | rain 24hr in | rain mn in | humidity % | barometer mb |
| 20260901224552 | 80 | 201 | 6.0 | 15.0 | 0.00 | 0.13 | 0.03 | 37 | 1025.8 |
| 20260901224026 | 80 | 169 | 3.0 | 13.0 | 0.00 | 0.13 | 0.03 | 38 | 1025.8 |
| 20260901223528 | 79 | 182 | 7.0 | 13.0 | 0.00 | 0.13 | 0.03 | 39 | 1026.0 |
| 20260901223050 | 79 | 204 | 2.0 | 10.0 | 0.00 | 0.13 | 0.03 | 40 | 1025.9 |
| 20260901222523 | 79 | 116 | 4.0 | 12.0 | 0.00 | 0.13 | 0.03 | 40 | 1026.1 |
| 20260901222028 | 80 | 159 | 7.0 | 13.0 | 0.00 | 0.13 | 0.03 | 39 | 1026.1 |
| 20260901221543 | 80 | 150 | 7.0 | 16.0 | 0.00 | 0.13 | 0.03 | 38 | 1026.1 |
| 20260901221025 | 80 | 170 | 4.0 | 16.0 | 0.00 | 0.13 | 0.03 | 39 | 1026.1 |
| 20260901220531 | 81 | 141 | 6.0 | 12.0 | 0.00 | 0.13 | 0.03 | 39 | 1026.1 |
| 20260901220110 | 81 | 120 | 6.0 | 12.0 | 0.00 | 0.13 | 0.03 | 38 | 1026.1 |
| 20260901215524 | 81 | 60 | 6.0 | 13.0 | 0.00 | 0.13 | 0.03 | 38 | 1026.3 |
| 20260901215028 | 81 | 125 | 5.0 | 13.0 | 0.00 | 0.13 | 0.03 | 38 | 1026.3 |
| 20260901214548 | 80 | 65 | 6.0 | 13.0 | 0.00 | 0.13 | 0.03 | 38 | 1026.4 |
| 20260901214024 | 80 | 105 | 5.0 | 11.0 | 0.00 | 0.13 | 0.03 | 40 | 1026.4 |
| 20260901213524 | 80 | 130 | 6.0 | 17.0 | 0.00 | 0.13 | 0.03 | 39 | 1026.4 |
| 20260901213111 | 80 | 123 | 8.0 | 17.0 | 0.00 | 0.13 | 0.03 | 40 | 1026.5 |
| 20260901212525 | 80 | 123 | 6.0 | 14.0 | 0.00 | 0.13 | 0.03 | 41 | 1026.5 |
| 20260901212025 | 80 | 126 | 7.0 | 14.0 | 0.00 | 0.13 | 0.03 | 38 | 1026.6 |
| 20260901211542 | 80 | 161 | 7.0 | 12.0 | 0.00 | 0.13 | 0.03 | 40 | 1026.7 |
| 20260901211025 | 80 | 136 | 6.0 | 12.0 | 0.00 | 0.13 | 0.03 | 40 | 1026.7 |
| 20260901210526 | 79 | 171 | 4.0 | 11.0 | 0.00 | 0.13 | 0.03 | 43 | 1026.8 |
| 20260901210047 | 78 | 177 | 2.0 | 12.0 | 0.00 | 0.13 | 0.03 | 44 | 1026.9 |
| 20260901205528 | 79 | 99 | 7.0 | 12.0 | 0.00 | 0.13 | 0.03 | 41 | 1027.0 |
| 20260901205026 | 80 | 181 | 4.0 | 17.0 | 0.00 | 0.13 | 0.03 | 41 | 1027.0 |
| 20260901204548 | 80 | 85 | 7.0 | 17.0 | 0.00 | 0.13 | 0.03 | 42 | 1027.2 |
| 20260901204026 | 80 | 111 | 7.0 | 14.0 | 0.00 | 0.13 | 0.03 | 41 | 1027.2 |
| 20260901203527 | 79 | 0 | 4.0 | 13.0 | 0.00 | 0.13 | 0.03 | 41 | 1027.3 |
| 20260901203057 | 78 | 106 | 6.0 | 12.0 | 0.00 | 0.13 | 0.03 | 42 | 1027.3 |
| 20260901202526 | 78 | 157 | 3.0 | 14.0 | 0.00 | 0.13 | 0.03 | 42 | 1027.3 |
| 20260901202027 | 78 | 163 | 6.0 | 14.0 | 0.00 | 0.13 | 0.03 | 42 | 1027.3 |
| 20260901201551 | 78 | 163 | 5.0 | 10.0 | 0.00 | 0.13 | 0.03 | 42 | 1027.4 |
| 20260901201029 | 77 | 153 | 5.0 | 12.0 | 0.00 | 0.13 | 0.03 | 43 | 1027.6 |
| 20260901200535 | 77 | 119 | 5.0 | 12.0 | 0.00 | 0.13 | 0.03 | 45 | 1027.7 |
| 20260901200050 | 76 | 126 | 6.0 | 11.0 | 0.00 | 0.13 | 0.03 | 44 | 1027.8 |
| 20260901195523 | 76 | 159 | 6.0 | 13.0 | 0.00 | 0.13 | 0.03 | 45 | 1027.8 |
| 20260901195023 | 76 | 186 | 6.0 | 13.0 | 0.00 | 0.13 | 0.03 | 45 | 1027.8 |
| 20260901194551 | 76 | 159 | 5.0 | 11.0 | 0.00 | 0.13 | 0.03 | 44 | 1027.8 |
| 20260901194030 | 76 | 130 | 6.0 | 10.0 | 0.00 | 0.13 | 0.03 | 46 | 1027.9 |
| 20260901193524 | 76 | 133 | 5.0 | 9.0 | 0.00 | 0.13 | 0.03 | 47 | 1027.8 |
| 20260901193053 | 76 | 155 | 5.0 | 13.0 | 0.00 | 0.13 | 0.03 | 48 | 1027.9 |
| 20260901192525 | 76 | 193 | 6.0 | 13.0 | 0.00 | 0.13 | 0.03 | 47 | 1028.0 |
| 20260901192023 | 75 | 113 | 6.0 | 13.0 | 0.00 | 0.13 | 0.03 | 47 | 1028.0 |
| 20260901191543 | 75 | 123 | 4.0 | 11.0 | 0.00 | 0.13 | 0.03 | 51 | 1028.1 |
| 20260901191025 | 75 | 115 | 5.0 | 11.0 | 0.00 | 0.13 | 0.03 | 51 | 1028.1 |
| 20260901190527 | 74 | 171 | 5.0 | 10.0 | 0.00 | 0.13 | 0.03 | 51 | 1028.2 |
| 20260901190053 | 74 | 74 | 5.0 | 11.0 | 0.00 | 0.13 | 0.03 | 51 | 1028.3 |
| 20260901185526 | 74 | 173 | 5.0 | 12.0 | 0.00 | 0.13 | 0.03 | 50 | 1028.3 |
| 20260901185027 | 74 | 136 | 5.0 | 12.0 | 0.00 | 0.13 | 0.03 | 51 | 1028.3 |
| 20260901184549 | 74 | 163 | 5.0 | 11.0 | 0.00 | 0.13 | 0.03 | 50 | 1028.3 |
| 20260901184028 | 75 | 136 | 5.0 | 11.0 | 0.00 | 0.13 | 0.03 | 49 | 1028.3 |
| 20260901183529 | 76 | 102 | 3.0 | 9.0 | 0.00 | 0.13 | 0.03 | 51 | 1028.4 |
| 20260901183050 | 75 | 92 | 4.0 | 11.0 | 0.00 | 0.13 | 0.03 | 51 | 1028.4 |
| 20260901182525 | 74 | 0 | 2.0 | 11.0 | 0.00 | 0.13 | 0.03 | 52 | 1028.4 |
| 20260901182032 | 74 | 0 | 1.0 | 11.0 | 0.00 | 0.13 | 0.03 | 53 | 1028.4 |
| 20260901181544 | 74 | 154 | 6.0 | 11.0 | 0.00 | 0.13 | 0.03 | 52 | 1028.5 |
| 20260901181026 | 74 | 236 | 2.0 | 6.0 | 0.00 | 0.13 | 0.03 | 53 | 1028.5 |
| 20260901180530 | 74 | 179 | 1.0 | 11.0 | 0.00 | 0.13 | 0.03 | 55 | 1028.5 |
| 20260901180054 | 73 | 167 | 4.0 | 11.0 | 0.00 | 0.13 | 0.03 | 55 | 1028.6 |
| 20260901175525 | 73 | 173 | 3.0 | 9.0 | 0.00 | 0.13 | 0.03 | 56 | 1028.7 |
| 20260901175026 | 73 | 184 | 4.0 | 9.0 | 0.00 | 0.13 | 0.03 | 55 | 1028.8 |
| 20260901174548 | 72 | 0 | 4.0 | 10.0 | 0.00 | 0.13 | 0.03 | 58 | 1028.8 |
| 20260901174023 | 72 | 173 | 5.0 | 10.0 | 0.00 | 0.13 | 0.03 | 57 | 1028.8 |
| 20260901173529 | 73 | 152 | 4.0 | 9.0 | 0.00 | 0.13 | 0.03 | 58 | 1028.8 |
| 20260901173058 | 73 | 177 | 3.0 | 8.0 | 0.00 | 0.13 | 0.03 | 56 | 1028.8 |
| 20260901172525 | 72 | 172 | 2.0 | 12.0 | 0.00 | 0.13 | 0.03 | 58 | 1028.8 |
| 20260901172030 | 72 | 189 | 4.0 | 12.0 | 0.00 | 0.13 | 0.03 | 57 | 1028.8 |
| 20260901171549 | 71 | 156 | 4.0 | 10.0 | 0.00 | 0.13 | 0.03 | 57 | 1028.9 |
| 20260901171028 | 71 | 182 | 5.0 | 9.0 | 0.00 | 0.13 | 0.03 | 58 | 1028.8 |
| 20260901170526 | 71 | 105 | 4.0 | 9.0 | 0.00 | 0.13 | 0.03 | 57 | 1028.8 |
| 20260901170105 | 70 | 142 | 4.0 | 9.0 | 0.00 | 0.13 | 0.03 | 59 | 1028.7 |
| 20260901165526 | 70 | 140 | 3.0 | 7.0 | 0.00 | 0.13 | 0.03 | 59 | 1028.8 |
| 20260901165028 | 70 | 126 | 3.0 | 7.0 | 0.00 | 0.13 | 0.03 | 57 | 1028.7 |
| 20260901164551 | 71 | 145 | 2.0 | 8.0 | 0.00 | 0.13 | 0.03 | 57 | 1028.6 |
| 20260901164028 | 71 | 78 | 3.0 | 9.0 | 0.00 | 0.13 | 0.03 | 57 | 1028.6 |
| 20260901163528 | 71 | 76 | 2.0 | 9.0 | 0.00 | 0.13 | 0.03 | 60 | 1028.5 |
| 20260901163046 | 71 | 65 | 4.0 | 7.0 | 0.00 | 0.13 | 0.03 | 59 | 1028.5 |
| 20260901162524 | 71 | 83 | 1.0 | 8.0 | 0.00 | 0.13 | 0.03 | 61 | 1028.4 |
| 20260901162026 | 70 | 34 | 1.0 | 8.0 | 0.00 | 0.13 | 0.03 | 64 | 1028.4 |
| 20260901161543 | 70 | 77 | 3.0 | 8.0 | 0.00 | 0.13 | 0.03 | 66 | 1028.5 |
| 20260901161025 | 69 | 52 | 1.0 | 6.0 | 0.00 | 0.13 | 0.03 | 71 | 1028.4 |
| 20260901160527 | 68 | 0 | 1.0 | 4.0 | 0.00 | 0.13 | 0.03 | 70 | 1028.4 |
| 20260901160047 | 67 | 0 | 1.0 | 4.0 | 0.00 | 0.13 | 0.03 | 74 | 1028.5 |
| 20260901155525 | 67 | 194 | 1.0 | 5.0 | 0.00 | 0.13 | 0.03 | 76 | 1028.5 |
| 20260901155028 | 65 | 192 | 2.0 | 5.0 | 0.00 | 0.13 | 0.03 | 79 | 1028.5 |
| 20260901154542 | 64 | 0 | 1.0 | 4.0 | 0.00 | 0.13 | 0.03 | 83 | 1028.5 |
| 20260901154031 | 63 | 243 | 0.0 | 4.0 | 0.00 | 0.13 | 0.03 | 83 | 1028.4 |
| 20260901153526 | 62 | 241 | 1.0 | 3.0 | 0.00 | 0.13 | 0.03 | 83 | 1028.4 |
| 20260901153050 | 62 | 238 | 0.0 | 3.0 | 0.00 | 0.13 | 0.03 | 85 | 1028.4 |
| 20260901152525 | 61 | 0 | 0.0 | 3.0 | 0.00 | 0.13 | 0.03 | 85 | 1028.4 |
| 20260901152029 | 61 | 237 | 0.0 | 5.0 | 0.00 | 0.13 | 0.03 | 85 | 1028.4 |
| 20260901151547 | 61 | 0 | 1.0 | 5.0 | 0.00 | 0.13 | 0.03 | 84 | 1028.3 |
| 20260901151027 | 61 | 232 | 2.0 | 5.0 | 0.00 | 0.13 | 0.03 | 83 | 1028.3 |
| 20260901150526 | 61 | 224 | 0.0 | 5.0 | 0.00 | 0.13 | 0.03 | 84 | 1028.3 |
| 20260901150056 | 61 | 202 | 2.0 | 5.0 | 0.00 | 0.13 | 0.03 | 84 | 1028.3 |
| 20260901145525 | 61 | 216 | 2.0 | 5.0 | 0.00 | 0.13 | 0.03 | 84 | 1028.2 |
| 20260901145030 | 60 | 240 | 0.0 | 7.0 | 0.00 | 0.13 | 0.03 | 85 | 1028.2 |
| 20260901144551 | 60 | 240 | 2.0 | 7.0 | 0.00 | 0.13 | 0.03 | 85 | 1028.1 |
| 20260901144024 | 60 | 240 | 1.0 | 6.0 | 0.00 | 0.13 | 0.03 | 86 | 1028.1 |
| 20260901143528 | 60 | 0 | 0.0 | 4.0 | 0.00 | 0.13 | 0.03 | 86 | 1028.0 |
| 20260901143052 | 60 | 213 | 0.0 | 2.0 | 0.00 | 0.13 | 0.03 | 86 | 1028.1 |
| 20260901142524 | 60 | 0 | 0.0 | 3.0 | 0.00 | 0.13 | 0.03 | 86 | 1028.0 |
| 20260901142030 | 60 | 0 | 0.0 | 7.0 | 0.00 | 0.13 | 0.03 | 86 | 1027.9 |
| 20260901141545 | 60 | 191 | 2.0 | 7.0 | 0.00 | 0.13 | 0.03 | 85 | 1027.9 |
| 20260901141030 | 60 | 186 | 1.0 | 5.0 | 0.00 | 0.13 | 0.03 | 83 | 1028.0 |
| 20260901140523 | 60 | 186 | 1.0 | 5.0 | 0.00 | 0.13 | 0.03 | 82 | 1027.8 |
| 20260901135528 | 60 | 0 | 0.0 | 4.0 | 0.00 | 0.13 | 0.03 | 79 | 1027.7 |
| 20260901135024 | 60 | 296 | 1.0 | 4.0 | 0.00 | 0.13 | 0.03 | 79 | 1027.6 |
| 20260901134609 | 60 | 297 | 1.0 | 4.0 | 0.00 | 0.13 | 0.03 | 80 | 1027.6 |
| 20260901134025 | 60 | 297 | 1.0 | 5.0 | 0.00 | 0.13 | 0.03 | 80 | 1027.4 |
| 20260901133525 | 59 | 297 | 2.0 | 7.0 | 0.00 | 0.13 | 0.03 | 80 | 1027.4 |
| 20260901133056 | 59 | 294 | 3.0 | 9.0 | 0.00 | 0.13 | 0.03 | 81 | 1027.4 |
| 20260901132528 | 59 | 298 | 3.0 | 9.0 | 0.01 | 0.13 | 0.03 | 82 | 1027.4 |
| 20260901132026 | 59 | 308 | 5.0 | 10.0 | 0.01 | 0.13 | 0.03 | 83 | 1027.3 |
| 20260901131553 | 58 | 297 | 5.0 | 10.0 | 0.01 | 0.13 | 0.03 | 85 | 1027.4 |
| 20260901131032 | 58 | 298 | 4.0 | 10.0 | 0.01 | 0.13 | 0.03 | 85 | 1027.4 |
| 20260901130530 | 58 | 294 | 4.0 | 10.0 | 0.01 | 0.13 | 0.03 | 86 | 1027.2 |
| 20260901130056 | 58 | 301 | 4.0 | 10.0 | 0.01 | 0.13 | 0.03 | 87 | 1027.2 |
| 20260901125527 | 58 | 273 | 4.0 | 7.0 | 0.01 | 0.13 | 0.03 | 88 | 1027.2 |
| 20260901125028 | 58 | 294 | 2.0 | 5.0 | 0.01 | 0.13 | 0.03 | 88 | 1027.6 |
| 20260901124553 | 58 | 292 | 2.0 | 5.0 | 0.01 | 0.13 | 0.03 | 88 | 1027.7 |
| 20260901124026 | 58 | 292 | 2.0 | 4.0 | 0.01 | 0.13 | 0.03 | 88 | 1027.7 |
| 20260901123527 | 58 | 292 | 2.0 | 5.0 | 0.01 | 0.13 | 0.03 | 87 | 1027.7 |
| 20260901123053 | 57 | 291 | 2.0 | 5.0 | 0.01 | 0.13 | 0.03 | 88 | 1027.8 |
| 20260901122529 | 57 | 0 | 1.0 | 6.0 | 0.00 | 0.12 | 0.02 | 89 | 1027.6 |
| 20260901122031 | 57 | 286 | 2.0 | 6.0 | 0.01 | 0.12 | 0.02 | 89 | 1027.5 |
| 20260901121552 | 57 | 286 | 0.0 | 6.0 | 0.01 | 0.12 | 0.02 | 90 | 1027.7 |
| 20260901121028 | 57 | 286 | 1.0 | 6.0 | 0.01 | 0.12 | 0.02 | 90 | 1027.6 |
| 20260901120527 | 57 | 282 | 2.0 | 4.0 | 0.01 | 0.12 | 0.02 | 90 | 1027.5 |
| 20260901120055 | 57 | 288 | 1.0 | 3.0 | 0.01 | 0.12 | 0.02 | 90 | 1027.6 |
| 20260901115523 | 58 | 288 | 0.0 | 5.0 | 0.01 | 0.12 | 0.02 | 90 | 1027.6 |
| 20260901115030 | 58 | 288 | 0.0 | 6.0 | 0.01 | 0.12 | 0.02 | 90 | 1027.6 |
| 20260901114543 | 58 | 288 | 3.0 | 6.0 | 0.01 | 0.12 | 0.02 | 90 | 1027.6 |
| 20260901114026 | 58 | 267 | 1.0 | 4.0 | 0.01 | 0.12 | 0.02 | 89 | 1027.7 |
| 20260901113527 | 58 | 263 | 1.0 | 7.0 | 0.01 | 0.12 | 0.02 | 89 | 1027.6 |
| 20260901113048 | 58 | 247 | 2.0 | 7.0 | 0.01 | 0.12 | 0.02 | 89 | 1027.7 |
| 20260901112526 | 58 | 23 | 0.0 | 4.0 | 0.01 | 0.12 | 0.02 | 89 | 1027.8 |
| 20260901112028 | 58 | 0 | 0.0 | 4.0 | 0.00 | 0.11 | 0.01 | 88 | 1028.1 |
| 20260901111553 | 58 | 21 | 1.0 | 4.0 | 0.00 | 0.11 | 0.01 | 88 | 1028.1 |
| 20260901111026 | 58 | 297 | 0.0 | 3.0 | 0.00 | 0.11 | 0.01 | 88 | 1028.0 |
| 20260901110524 | 58 | 0 | 0.0 | 4.0 | 0.00 | 0.11 | 0.01 | 87 | 1028.0 |
| 20260901110051 | 59 | 293 | 0.0 | 5.0 | 0.00 | 0.11 | 0.01 | 86 | 1028.0 |
| 20260901105527 | 58 | 293 | 1.0 | 7.0 | 0.00 | 0.11 | 0.01 | 86 | 1027.9 |
| 20260901105029 | 58 | 294 | 3.0 | 7.0 | 0.00 | 0.11 | 0.01 | 86 | 1027.8 |
| 20260901104557 | 58 | 293 | 3.0 | 5.0 | 0.00 | 0.11 | 0.01 | 86 | 1027.8 |
| 20260901104029 | 58 | 298 | 2.0 | 7.0 | 0.00 | 0.11 | 0.01 | 87 | 1027.8 |
| 20260901103530 | 58 | 297 | 3.0 | 7.0 | 0.00 | 0.11 | 0.01 | 87 | 1027.8 |
| 20260901103053 | 58 | 304 | 3.0 | 7.0 | 0.00 | 0.11 | 0.01 | 88 | 1027.7 |
| 20260901102525 | 58 | 300 | 3.0 | 8.0 | 0.00 | 0.11 | 0.01 | 88 | 1027.8 |
| 20260901102029 | 58 | 299 | 3.0 | 8.0 | 0.00 | 0.11 | 0.01 | 88 | 1027.8 |
| 20260901101550 | 58 | 284 | 2.0 | 6.0 | 0.00 | 0.11 | 0.01 | 88 | 1027.9 |
| 20260901101031 | 58 | 279 | 1.0 | 6.0 | 0.00 | 0.11 | 0.01 | 88 | 1027.9 |
| 20260901100527 | 58 | 279 | 2.0 | 6.0 | 0.00 | 0.11 | 0.01 | 88 | 1028.0 |
| 20260901100057 | 58 | 285 | 1.0 | 5.0 | 0.00 | 0.11 | 0.01 | 89 | 1028.1 |
| 20260901095525 | 58 | 286 | 1.0 | 8.0 | 0.00 | 0.11 | 0.01 | 89 | 1028.3 |
| 20260901095025 | 58 | 290 | 2.0 | 8.0 | 0.00 | 0.11 | 0.01 | 89 | 1028.2 |
| 20260901094552 | 58 | 297 | 2.0 | 8.0 | 0.00 | 0.11 | 0.01 | 89 | 1028.3 |
| 20260901094031 | 58 | 300 | 4.0 | 8.0 | 0.00 | 0.11 | 0.01 | 89 | 1028.2 |
| 20260901093529 | 58 | 284 | 4.0 | 8.0 | 0.00 | 0.11 | 0.01 | 90 | 1028.3 |
| 20260901093049 | 58 | 270 | 2.0 | 4.0 | 0.00 | 0.11 | 0.01 | 90 | 1028.3 |
| 20260901092525 | 58 | 256 | 2.0 | 4.0 | 0.00 | 0.11 | 0.01 | 90 | 1028.4 |
| 20260901092025 | 58 | 0 | 1.0 | 4.0 | 0.00 | 0.11 | 0.01 | 90 | 1028.5 |
| 20260901091544 | 58 | 222 | 1.0 | 4.0 | 0.01 | 0.11 | 0.01 | 90 | 1028.6 |
| 20260901091024 | 58 | 0 | 1.0 | 3.0 | 0.01 | 0.11 | 0.01 | 89 | 1028.8 |
| 20260901090524 | 58 | 205 | 0.0 | 3.0 | 0.01 | 0.11 | 0.01 | 89 | 1028.9 |
| 20260901090053 | 58 | 205 | 1.0 | 3.0 | 0.01 | 0.11 | 0.01 | 89 | 1028.8 |
| 20260901085525 | 58 | 0 | 0.0 | 9.0 | 0.01 | 0.11 | 0.01 | 88 | 1028.8 |
| 20260901085024 | 58 | 0 | 0.0 | 11.0 | 0.01 | 0.11 | 0.01 | 88 | 1029.0 |
| 20260901084604 | 59 | 119 | 5.0 | 11.0 | 0.01 | 0.11 | 0.01 | 88 | 1028.9 |
| 20260901084023 | 58 | 159 | 4.0 | 11.0 | 0.01 | 0.11 | 0.01 | 89 | 1028.9 |
| 20260901083527 | 59 | 134 | 2.0 | 8.0 | 0.01 | 0.11 | 0.01 | 90 | 1028.8 |
| 20260901083049 | 59 | 323 | 3.0 | 8.0 | 0.01 | 0.11 | 0.01 | 90 | 1028.3 |
| 20260901082525 | 59 | 302 | 3.0 | 8.0 | 0.01 | 0.11 | 0.01 | 89 | 1027.8 |
| 20260901082025 | 59 | 304 | 2.0 | 5.0 | 0.01 | 0.11 | 0.01 | 89 | 1028.0 |
| 20260901081542 | 59 | 287 | 1.0 | 10.0 | 0.00 | 0.10 | 0.00 | 88 | 1028.0 |
| 20260901081025 | 59 | 208 | 3.0 | 12.0 | 0.00 | 0.10 | 0.00 | 88 | 1028.0 |
| 20260901080525 | 59 | 165 | 3.0 | 12.0 | 0.00 | 0.10 | 0.00 | 87 | 1028.1 |
| 20260901080042 | 59 | 121 | 7.0 | 12.0 | 0.00 | 0.10 | 0.00 | 87 | 1028.2 |
| 20260901075524 | 59 | 134 | 2.0 | 6.0 | 0.00 | 0.10 | 0.00 | 87 | 1027.6 |
| 20260901075027 | 59 | 82 | 1.0 | 5.0 | 0.00 | 0.10 | 0.00 | 88 | 1027.3 |
| 20260901074550 | 59 | 0 | 1.0 | 5.0 | 0.00 | 0.10 | 0.00 | 87 | 1027.4 |
| 20260901074024 | 59 | 0 | 0.0 | 3.0 | 0.00 | 0.10 | 0.00 | 87 | 1027.4 |
| 20260901073524 | 59 | 198 | 0.0 | 3.0 | 0.00 | 0.10 | 0.00 | 87 | 1027.6 |
| 20260901073048 | 59 | 0 | 0.0 | 2.0 | 0.00 | 0.10 | 0.00 | 87 | 1027.6 |
| 20260901072525 | 59 | 0 | 0.0 | 3.0 | 0.00 | 0.10 | 0.00 | 87 | 1027.8 |
| 20260901072026 | 59 | 0 | 1.0 | 6.0 | 0.00 | 0.10 | 0.00 | 87 | 1027.7 |
| 20260901071552 | 59 | 189 | 0.0 | 6.0 | 0.00 | 0.10 | 0.00 | 87 | 1027.7 |
| 20260901071025 | 58 | 189 | 1.0 | 6.0 | 0.00 | 0.10 | 0.00 | 88 | 1027.7 |
| 20260901070525 | 58 | 0 | 1.0 | 6.0 | 0.00 | 0.10 | 0.00 | 89 | 1027.6 |
| 20260901070047 | 58 | 165 | 0.0 | 6.0 | 0.00 | 0.10 | 0.00 | 90 | 1027.6 |
| 20260901065525 | 58 | 248 | 1.0 | 3.0 | 0.00 | 0.10 | 0.00 | 91 | 1027.6 |
| 20260901065024 | 58 | 0 | 0.0 | 0.0 | 0.00 | 0.10 | 0.00 | 90 | 1027.6 |
| 20260901064542 | 58 | 0 | 0.0 | 0.0 | 0.00 | 0.10 | 0.00 | 90 | 1027.6 |
| 20260901064026 | 58 | 0 | 0.0 | 0.0 | 0.00 | 0.10 | 0.00 | 90 | 1027.5 |
| 20260901063523 | 58 | 0 | 0.0 | 0.0 | 0.00 | 0.10 | 0.00 | 90 | 1027.4 |
| 20260901063051 | 58 | 0 | 0.0 | 0.0 | 0.00 | 0.10 | 0.00 | 90 | 1027.4 |
| 20260901062524 | 58 | 0 | 0.0 | 0.0 | 0.00 | 0.10 | 0.00 | 89 | 1027.4 |
| 20260901062025 | 58 | 0 | 0.0 | 0.0 | 0.00 | 0.10 | 0.00 | 90 | 1027.4 |
| 20260901061549 | 58 | 0 | 0.0 | 0.0 | 0.00 | 0.10 | 0.00 | 89 | 1027.4 |
| 20260901061025 | 58 | 0 | 0.0 | 0.0 | 0.00 | 0.10 | 0.00 | 88 | 1027.4 |
| 20260901060523 | 58 | 0 | 0.0 | 0.0 | 0.00 | 0.10 | 0.00 | 88 | 1027.2 |
| 20260901060050 | 58 | 0 | 0.0 | 0.0 | 0.00 | 0.10 | 0.00 | 87 | 1027.2 |
| 20260901055525 | 58 | 0 | 0.0 | 0.0 | 0.00 | 0.10 | 0.10 | 86 | 1027.1 |
| 20260901055025 | 59 | 0 | 0.0 | 2.0 | 0.00 | 0.10 | 0.10 | 86 | 1027.1 |
| 20260901054552 | 59 | 0 | 0.0 | 3.0 | 0.00 | 0.10 | 0.10 | 85 | 1027.2 |
| 20260901054025 | 59 | 290 | 1.0 | 3.0 | 0.01 | 0.10 | 0.10 | 85 | 1027.2 |
| 20260901053526 | 59 | 290 | 2.0 | 3.0 | 0.02 | 0.10 | 0.10 | 84 | 1027.2 |
| 20260901053104 | 59 | 0 | 0.0 | 4.0 | 0.02 | 0.10 | 0.10 | 84 | 1027.3 |
| 20260901052524 | 59 | 0 | 0.0 | 5.0 | 0.02 | 0.10 | 0.10 | 85 | 1027.4 |
| 20260901052025 | 59 | 0 | 2.0 | 7.0 | 0.02 | 0.10 | 0.10 | 85 | 1027.4 |
| 20260901051604 | 59 | 286 | 2.0 | 8.0 | 0.02 | 0.10 | 0.10 | 85 | 1027.4 |
| 20260901051028 | 59 | 296 | 3.0 | 8.0 | 0.02 | 0.10 | 0.10 | 85 | 1027.6 |
| 20260901050524 | 59 | 288 | 3.0 | 9.0 | 0.02 | 0.10 | 0.10 | 85 | 1027.7 |
| 20260901050043 | 59 | 297 | 4.0 | 9.0 | 0.02 | 0.10 | 0.10 | 84 | 1027.7 |
| 20260901045523 | 59 | 298 | 2.0 | 5.0 | 0.02 | 0.10 | 0.10 | 84 | 1027.8 |
| 20260901045023 | 59 | 298 | 2.0 | 9.0 | 0.02 | 0.10 | 0.10 | 83 | 1028.0 |
| 20260901044553 | 60 | 299 | 3.0 | 9.0 | 0.02 | 0.10 | 0.10 | 82 | 1028.3 |
| 20260901044026 | 60 | 302 | 4.0 | 9.0 | 0.01 | 0.09 | 0.09 | 81 | 1028.4 |
| 20260901043527 | 60 | 33 | 2.0 | 6.0 | 0.00 | 0.08 | 0.08 | 81 | 1029.2 |
| 20260901043043 | 60 | 32 | 1.0 | 5.0 | 0.00 | 0.08 | 0.08 | 80 | 1029.1 |
| 20260901042525 | 60 | 350 | 1.0 | 5.0 | 0.00 | 0.08 | 0.08 | 81 | 1029.0 |
| 20260901042024 | 60 | 348 | 1.0 | 5.0 | 0.00 | 0.08 | 0.08 | 82 | 1028.8 |
| 20260901041550 | 60 | 338 | 1.0 | 4.0 | 0.00 | 0.08 | 0.08 | 83 | 1028.7 |
| 20260901041028 | 60 | 0 | 1.0 | 4.0 | 0.00 | 0.08 | 0.08 | 83 | 1028.4 |
| 20260901040526 | 60 | 0 | 1.0 | 4.0 | 0.00 | 0.08 | 0.08 | 82 | 1028.3 |
| 20260901040107 | 60 | 294 | 1.0 | 3.0 | 0.00 | 0.08 | 0.08 | 82 | 1028.2 |
| 20260901035529 | 60 | 0 | 0.0 | 2.0 | 0.00 | 0.08 | 0.08 | 81 | 1028.0 |
| 20260901035023 | 60 | 0 | 0.0 | 5.0 | 0.00 | 0.08 | 0.08 | 80 | 1027.8 |
| 20260901034559 | 60 | 294 | 1.0 | 5.0 | 0.00 | 0.08 | 0.08 | 80 | 1027.8 |
| 20260901034024 | 60 | 295 | 2.0 | 5.0 | 0.00 | 0.08 | 0.08 | 80 | 1027.8 |
| 20260901033528 | 60 | 0 | 0.0 | 3.0 | 0.00 | 0.08 | 0.08 | 80 | 1028.0 |
| 20260901033049 | 60 | 0 | 0.0 | 8.0 | 0.00 | 0.08 | 0.08 | 79 | 1028.0 |
| 20260901032526 | 61 | 0 | 1.0 | 9.0 | 0.00 | 0.08 | 0.08 | 78 | 1027.9 |
| 20260901032023 | 61 | 313 | 4.0 | 10.0 | 0.00 | 0.08 | 0.08 | 78 | 1027.9 |
| 20260901031548 | 61 | 313 | 4.0 | 13.0 | 0.00 | 0.08 | 0.08 | 79 | 1028.1 |
| 20260901031027 | 61 | 316 | 5.0 | 13.0 | 0.00 | 0.08 | 0.08 | 79 | 1028.4 |
| 20260901030524 | 61 | 340 | 6.0 | 13.0 | 0.00 | 0.08 | 0.08 | 80 | 1028.4 |
| 20260901030042 | 60 | 340 | 4.0 | 8.0 | 0.00 | 0.08 | 0.08 | 82 | 1028.3 |
| 20260901025527 | 60 | 349 | 4.0 | 8.0 | 0.00 | 0.08 | 0.08 | 85 | 1028.3 |
| 20260901025029 | 60 | 352 | 2.0 | 6.0 | 0.00 | 0.08 | 0.08 | 86 | 1028.3 |
| 20260901024555 | 60 | 349 | 2.0 | 10.0 | 0.00 | 0.08 | 0.08 | 86 | 1028.3 |
| 20260901024028 | 60 | 347 | 3.0 | 10.0 | 0.00 | 0.08 | 0.08 | 86 | 1028.4 |
| 20260901023525 | 60 | 347 | 5.0 | 10.0 | 0.01 | 0.08 | 0.08 | 85 | 1028.3 |
| 20260901023104 | 60 | 19 | 1.0 | 5.0 | 0.01 | 0.08 | 0.08 | 86 | 1027.9 |
| 20260901022524 | 60 | 352 | 3.0 | 5.0 | 0.01 | 0.08 | 0.08 | 86 | 1027.9 |
| 20260901022023 | 60 | 298 | 1.0 | 4.0 | 0.02 | 0.08 | 0.08 | 86 | 1027.7 |
| 20260901021551 | 60 | 0 | 1.0 | 4.0 | 0.02 | 0.08 | 0.08 | 87 | 1027.6 |
| 20260901021024 | 60 | 294 | 0.0 | 10.0 | 0.02 | 0.08 | 0.08 | 87 | 1027.4 |
| 20260901020525 | 60 | 0 | 2.0 | 11.0 | 0.02 | 0.08 | 0.08 | 87 | 1027.2 |
| 20260901020045 | 60 | 295 | 6.0 | 11.0 | 0.03 | 0.08 | 0.08 | 88 | 1026.5 |
| 20260901015526 | 60 | 300 | 4.0 | 10.0 | 0.03 | 0.08 | 0.08 | 88 | 1026.3 |
| 20260901015027 | 61 | 267 | 3.0 | 10.0 | 0.03 | 0.08 | 0.08 | 88 | 1026.4 |
| 20260901014558 | 61 | 283 | 5.0 | 10.0 | 0.03 | 0.08 | 0.08 | 87 | 1026.7 |
| 20260901014024 | 61 | 283 | 5.0 | 10.0 | 0.02 | 0.07 | 0.07 | 87 | 1026.9 |
| 20260901013524 | 61 | 268 | 2.0 | 7.0 | 0.03 | 0.07 | 0.07 | 88 | 1027.0 |
| 20260901013050 | 61 | 276 | 3.0 | 7.0 | 0.03 | 0.07 | 0.07 | 88 | 1026.9 |
| 20260901012527 | 61 | 217 | 2.0 | 7.0 | 0.03 | 0.07 | 0.07 | 88 | 1026.9 |
| 20260901012024 | 61 | 321 | 0.0 | 4.0 | 0.02 | 0.06 | 0.06 | 86 | 1026.8 |
| 20260901011543 | 62 | 321 | 0.0 | 4.0 | 0.02 | 0.06 | 0.06 | 85 | 1026.6 |
| 20260901011025 | 62 | 322 | 2.0 | 4.0 | 0.02 | 0.06 | 0.06 | 85 | 1026.5 |
| 20260901010529 | 62 | 322 | 0.0 | 5.0 | 0.02 | 0.06 | 0.06 | 86 | 1026.6 |
| 20260901010049 | 62 | 323 | 2.0 | 5.0 | 0.02 | 0.05 | 0.05 | 87 | 1026.6 |
| 20260901005525 | 62 | 325 | 2.0 | 5.0 | 0.02 | 0.05 | 0.05 | 88 | 1026.6 |
| 20260901005026 | 62 | 328 | 1.0 | 3.0 | 0.02 | 0.05 | 0.05 | 87 | 1027.0 |
| 20260901004551 | 62 | 0 | 0.0 | 4.0 | 0.03 | 0.05 | 0.05 | 86 | 1027.1 |
| 20260901004023 | 62 | 327 | 1.0 | 5.0 | 0.02 | 0.04 | 0.04 | 86 | 1027.4 |
| 20260901003523 | 62 | 0 | 1.0 | 7.0 | 0.02 | 0.04 | 0.04 | 84 | 1027.2 |
| 20260901003042 | 63 | 309 | 2.0 | 7.0 | 0.02 | 0.04 | 0.04 | 83 | 1027.1 |
| 20260901002523 | 63 | 316 | 3.0 | 9.0 | 0.02 | 0.04 | 0.04 | 83 | 1027.1 |
| 20260901002031 | 63 | 334 | 2.0 | 10.0 | 0.02 | 0.04 | 0.04 | 83 | 1027.2 |
| 20260901001548 | 63 | 337 | 4.0 | 12.0 | 0.02 | 0.04 | 0.04 | 83 | 1027.2 |
| 20260901001024 | 63 | 339 | 5.0 | 12.0 | 0.02 | 0.04 | 0.04 | 83 | 1027.1 |
| 20260901000526 | 63 | 360 | 5.0 | 10.0 | 0.02 | 0.04 | 0.04 | 83 | 1027.2 |
| 20260901000047 | 63 | 329 | 4.0 | 11.0 | 0.02 | 0.03 | 0.03 | 83 | 1027.3 |
| 20260831235525 | 63 | 25 | 3.0 | 15.0 | 0.02 | 0.03 | 0.03 | 81 | 1027.1 |
| 20260831235024 | 64 | 43 | 3.0 | 15.0 | 0.02 | 0.03 | 0.03 | 80 | 1027.1 |
| 20260831234545 | 64 | 107 | 6.0 | 15.0 | 0.02 | 0.02 | 0.02 | 79 | 1026.8 |
| 20260831234025 | 64 | 48 | 0.0 | 2.0 | 0.02 | 0.02 | 0.02 | 82 | 1026.6 |
| 20260831233524 | 64 | 0 | 0.0 | 4.0 | 0.02 | 0.02 | 0.02 | 80 | 1026.2 |
| 20260831233042 | 64 | 0 | 0.0 | 9.0 | 0.02 | 0.02 | 0.02 | 77 | 1025.9 |
| 20260831232545 | 65 | 47 | 1.0 | 9.0 | 0.02 | 0.02 | 0.02 | 74 | 1025.7 |
| 20260831232023 | 65 | 76 | 3.0 | 12.0 | 0.02 | 0.02 | 0.02 | 71 | 1025.8 |
| 20260831231547 | 66 | 17 | 1.0 | 12.0 | 0.02 | 0.02 | 0.02 | 68 | 1025.6 |
| 20260831231027 | 64 | 327 | 6.0 | 12.0 | 0.02 | 0.02 | 0.02 | 65 | 1025.5 |
| 20260831230528 | 63 | 340 | 4.0 | 10.0 | 0.02 | 0.02 | 0.02 | 77 | 1025.7 |
| 20260831230047 | 63 | 338 | 5.0 | 10.0 | 0.01 | 0.01 | 0.01 | 78 | 1025.8 |
| 20260831225524 | 63 | 352 | 5.0 | 14.0 | 0.01 | 0.01 | 0.01 | 77 | 1025.7 |
| 20260831225023 | 63 | 342 | 6.0 | 15.0 | 0.01 | 0.01 | 0.01 | 76 | 1025.8 |